Location: Caoba
(9.7667°N, 67.4833°W)
Time: 12:03:15
(UTC+00:00)

Daily predictions for brighter satellites

Satellite Brightness Start Highest point End
(mag) Time Altitude Azimuth Time Altitude Azimuth Time Altitude Azimuth
Ariane H10 4.1 22:36:58 10° WSW 22:40:21 68° S 22:54:50 10° E
Cosmos 1725 Rocket 4.1 22:45:34 10° S 22:51:39 58° E 22:57:40 10° NNE
Meteor 2-6 Rocket 4.3 22:47:28 10° N 22:52:50 79° W 22:58:14 10° S
Cosmos 2346 Rocket 4.4 22:46:56 10° N 22:53:04 75° E 22:59:09 10° S
OAO 3 Rocket 4.0 22:50:10 10° SSW 22:54:24 31° SE 22:58:33 10° E
Longmarch 3A Rocket 2.6 22:54:03 10° W 22:56:31 53° NNW 23:04:02 10° ENE
Milstar 3 3.9 22:52:36 10° WNW 23:03:10 53° SW 23:09:57 10° SE
Meteor 2-21 Rocket 4.5 22:58:06 10° N 23:04:06 61° E 23:10:04 10° SSE
Cosmos 1354 Rocket 4.0 22:59:46 10° N 23:05:03 79° ENE 23:10:22 10° SSE
Cosmos 1743 3.5 23:02:22 10° SSE 23:05:22 25° E 23:08:20 10° NE
Cosmos 1802 Rocket 4.1 22:59:45 10° S 23:05:52 81° W 23:12:01 10° N
Cosmos 1844 Rocket 3.9 23:02:47 10° NNE 23:07:03 22° ENE 23:11:16 10° ESE
ISS -3.8 23:04:15 10° SW 23:07:35 87° SE 23:10:56 10° NE
COSMOS 2428 2.9 23:04:45 10° S 23:10:12 50° ESE 23:15:41 10° NNE
BREEZE-M DEB (TANK) 3.2 23:08:00 10° NW 23:12:59 44° WSW 23:15:21 10° SSE
Cosmos 2061 Rocket 4.0 23:11:38 10° S 23:17:56 70° E 23:24:17 10° N
Helios 1B rocket 2.3 23:15:37 10° SSE 23:19:24 56° ENE 23:23:10 10° N
Cosmos 2233 Rocket 3.9 23:14:27 10° S 23:20:32 68° E 23:26:36 10° N
ATLAS V CENTAUR R/B 3.1 23:12:12 10° WSW 23:21:49 87° SSE 23:23:40 20° ENE
Cosmos 2263 Rocket 4.4 23:19:41 10° NW 23:24:26 28° WSW 23:29:11 10° SSW
Cosmos 1340 2.4 23:25:44 10° S 23:28:59 75° W 23:32:13 10° N
Cosmos 990 Rocket 4.0 23:24:48 10° N 23:29:52 57° ENE 23:34:54 10° SSE
SL-4 R/B 4.0 23:26:27 10° WNW 23:30:03 28° WSW 23:33:31 10° S
Meteor 1-27 Rocket 3.6 23:26:26 10° N 23:32:02 72° E 23:37:45 10° SSE
Landsat 7 3.8 23:30:38 10° S 23:35:20 86° W 23:40:01 10° NNW
GOES 2 Rocket 3.8 23:30:11 10° WNW 23:35:38 86° NNE 23:40:15 23° ESE
Cosmos 2292 Rocket 3.9 23:34:12 10° NNE 23:35:57 25° NE 23:35:57 25° NE
Meteor 2-4 Rocket 4.5 23:32:30 10° NNE 23:37:37 31° E 23:39:48 24° ESE
SPOT 1/Viking Rocket 4.1 23:37:28 23° SE 23:39:56 35° ENE 23:44:36 10° NNE
Sakura Rocket 4.4 23:33:24 10° WNW 23:41:36 66° SSW 23:45:36 23° SE
Cosmos 1844 3.9 23:40:03 10° N 23:45:20 47° ENE 23:47:52 28° SE
Iridium 4 Rocket 4.3 23:46:37 10° NNE 23:48:30 23° NE 23:48:30 23° NE
SAR-Lupe-2 3.4 23:50:34 61° E 23:50:39 62° ENE 23:54:10 10° N
ARIANE 5 DEB (SYLDA 5A) 4.3 23:53:38 10° SSW 23:53:46 11° SSW 23:53:46 11° SSW
